Flag for Switzerland Weather past 2 weeks in Montreux, Vaud, Switzerland

Now
50 °F

Overcast.


Feels Like: 47 °F
Forecast: 29 / 60 °F
Wind: 7 mph from North

Location: Aigle


UV Index: 0 (Low)

Visibility: 19 mi


Pressure: 29.76 "Hg

Humidity: 54%

Dew point: 33 °F

Location of MontreuxLocation

Historic Weather in Montreux

°F

Montreux temperature yesterday

Maximum temperature yesterday: 53 °F (at 6:00 PM)
Minimum temperature yesterday: 36 °F (at 3:00 AM)
Average temperature yesterday: 46 °F

Past Weeks' High & Low Weather Summary

 TemperatureHumidityPressure
High69 °F (Apr 7, 5:00 PM)98% (Apr 5, 7:00 AM)30.32 "Hg (Apr 5, 7:00 AM)
Low33 °F (Apr 17, 6:00 AM)27% (Apr 15, 6:00 PM)29.65 "Hg (Apr 4, 3:00 PM)
Average53 °F66%30.06 "Hg
* Reported Apr 4 1:00 PM — Apr 19 1:00 PM, Montreux, Weather by CustomWeather, © 2014

Note: Actual official high and low records may vary slightly from our data, if they occured in-between our weather recording intervals... More about our weather records

Advertising

Historic Weather Conditions — Data for Previous 24 hours

 ConditionsComfort  
Time TempWeatherWind HumidityBarometerVisibility
1:00 PM
Apr 19
50 °FCool.6 mph52%29.76 "HgN/A
12:00 PM49 °FCool.5 mph59%29.77 "HgN/A
11:00 AM46 °FOvercast.2 mph61%29.78 "Hg22 mi
10:00 AM43 °FQuite cool.1 mph66%29.78 "HgN/A
9:00 AM42 °FQuite cool.2 mph77%29.80 "HgN/A
8:00 AM36 °FPartly sunny.1 mph91%29.82 "Hg22 mi
7:00 AM38 °FChilly.5 mph78%29.81 "HgN/A
6:00 AM38 °FChilly.2 mph77%29.80 "HgN/A
5:00 AM40 °FPassing clouds.7 mph74%29.81 "Hg11 mi
4:00 AM41 °FQuite cool.6 mph74%29.81 "HgN/A
3:00 AM42 °FQuite cool.9 mph73%29.82 "HgN/A
2:00 AM41 °FQuite cool.6 mph75%29.84 "HgN/A
1:00 AM44 °FQuite cool.8 mph68%29.85 "HgN/A
12:00 AM45 °FQuite cool.6 mph65%29.87 "HgN/A
10:00 PM
Apr 18
46 °FCool.12 mph72%29.89 "HgN/A
9:00 PM47 °FCool.6 mph65%29.88 "HgN/A
8:00 PM47 °FOvercast.18 mph71%29.85 "Hg6 mi
7:00 PM51 °FCool.3 mph67%29.84 "HgN/A
6:00 PM53 °FCool.10 mph60%29.84 "HgN/A
5:00 PM51 °FOvercast.2 mph77%29.85 "Hg10 mi
4:00 PM52 °FCool.3 mph74%29.87 "HgN/A
3:00 PM51 °FCool.3 mph76%29.90 "HgN/A
Weather by CustomWeather, © 2014

See weather overview